Location: Ch�tillon
(48.8024°N, 2.2935°E)
Time: 15:04:01
(UTC+00:00)

DIWATA 2B (PO-101) - Pass Details

Date: 27 June 2022
Orbit: 583 x 599 km, 98.0° (Epoch: 19 August)

Event Time Altitude Azimuth Distance (km) Brightness Sun altitude
Exits shadow 02:41:09 12° 222° (SW) 1,835 ? -8.8°
Maximum altitude 02:43:59 21° 268° (W) 1,375 ? -8.5°
Drops below altitude 10° 02:47:12 10° 317° (NW) 1,950 ? -8.2°
Sets 02:49:51 0° 334° (NNW) 2,860 ? -7.9°
